User: anonymous   Login
Location: Poughquag
(41.6090°N, 73.6820°W)
Time: 11:34:20
(UTC-04:00)
Language:

STARLINK-1364 - Orbit

View from above orbital plane
View from above orbital plane
View from above satellite
View from above satellite

Ground track
Ground track

The orbit data is extracted from the following two-line orbital elements,

1 45589U 20025BL  20221.50001157 -.01075212  00000-0 -34629-1 0  9991
2 45589  52.9999 232.4351 0001359  67.4715  37.5786 15.34455679 17557
Epoch (UTC): 08 August 2020 12:00:01
Eccentricity: 0.0001359
inclination: 52.9999°
perigee height: 461 km
apogee height: 463 km
right ascension of ascending node: 232.4351°
argument of perigee: 67.4715°
revolutions per day: 15.34455679
mean anomaly at epoch: 37.5786°
orbit number at epoch: 1755

The dashed part of the orbit path shows where the satellite is in the earth's shadow,  

DLR